Change the Weather History Date:

Tuesday, December 11, 2012

  Actual Average Record
Temperature  
Mean Temperature 47 °F -  
Max Temperature 54 °F 58 °F 66 °F (2011)
Min Temperature 40 °F 41 °F 32 °F (2001)
Degree Days  
Heating Degree Days 18    
Moisture  
Dew Point 39 °F    
Average Humidity 69    
Maximum Humidity 93    
Minimum Humidity 47    
Precipitation  
Precipitation 0.00 in 0.07 in - ()
Sea Level Pressure  
Sea Level Pressure 29.96 in    
Wind  
Wind Speed 6 mph ()    
Max Wind Speed 14 mph    
Max Gust Speed -    
Visibility 7.1 miles    
Events      
Averages and records for this station are not official NWS values.
T = Trace of Precipitation, MM = Missing Value Source: Averaged Metar Reports

Daily Weather History Graph

Daily Weather History Graph

Search for Another Location

Airport or City:

Trip Planner

Search our weather history database for the weather conditions in past years. The results will help you decide how hot, cold, wet, or windy it might be!

Date:

Astronomy

Dec. 11, 2012 Rise Set
Actual Time 7:34 AM CET 5:00 PM CET
Civil Twilight 7:04 AM CET 5:31 PM CET
Nautical Twilight 6:30 AM CET 6:04 PM CET
Astronomical Twilight 5:57 AM CET 6:37 PM CET
Moon 5:09 AM CET (12/11) 3:25 PM CET (12/11)
Length of Visible Light 10h 27m
Length of Day
9h 26m
Waning Crescent, 5% of the Moon is Illuminated
Dec 11
Waning Crescent
Dec 13
New
Dec 20
First Quarter
Dec 28
Full
Jan 5
Last Quarter

Hourly Weather History & Observations

Time (CET) Temp. Windchill Dew Point Humidity Pressure Visibility Wind Dir Wind Speed Gust Speed Precip Events Conditions
12:55 AM 51.8 °F - 41.0 °F 67% 29.92 in 6.2 mi NW 8.1 mph - N/A   Scattered Clouds
1:00 AM 52 °F - 41 °F 57% 29.92 in 7 mi NW 8.1 mph - -   Partly Cloudy
1:55 AM 51.8 °F - 41.0 °F 67% 29.92 in 6.2 mi WNW 5.8 mph - N/A   Partly Cloudy
2:55 AM 50.0 °F - 39.2 °F 66% 29.92 in 6.2 mi WNW 6.9 mph - N/A   Partly Cloudy
3:55 AM 48.2 °F - 39.2 °F 71% 29.92 in 6.2 mi NNW 4.6 mph - N/A   Scattered Clouds
4:00 AM 48 °F - 40 °F 65% 29.94 in 7 mi NNW 4.6 mph - -   Partly Cloudy
4:55 AM 46.4 °F 44.3 °F 39.2 °F 76% 29.92 in 6.2 mi NW 4.6 mph - N/A   Scattered Clouds
5:55 AM 41.0 °F - 39.2 °F 93% 29.92 in 6.2 mi East 2.3 mph - N/A   Partly Cloudy
6:55 AM 41.0 °F - 37.4 °F 87% 29.95 in 6.2 mi East 2.3 mph - N/A   Scattered Clouds
7:00 AM 40 °F - 38 °F 90% 29.96 in 7 mi East 2.3 mph - -   Partly Cloudy
8:55 AM 41.0 °F - 37.4 °F 87% 29.98 in 6.2 mi Calm Calm - N/A   Partly Cloudy
9:55 AM 42.8 °F - 39.2 °F 87% 29.98 in 6.2 mi North 1.2 mph - N/A   Scattered Clouds
10:00 AM 44 °F - 40 °F 80% 30.00 in 10 mi North 1.2 mph - -   Partly Cloudy
11:55 AM 53.6 °F - 37.4 °F 54% 29.98 in 6.2 mi NW 12.7 mph - N/A   Scattered Clouds
12:55 PM 53.6 °F - 41.0 °F 62% 29.98 in 6.2 mi NW 10.4 mph - N/A   Mostly Cloudy
1:00 PM 53 °F - 41 °F 53% 29.99 in 10 mi NW 10.4 mph - -   Mostly Cloudy
2:55 PM 53.6 °F - 35.6 °F 51% 29.95 in 6.2 mi NW 12.7 mph - N/A   Scattered Clouds
3:55 PM 53.6 °F - 39.2 °F 58% 29.95 in 6.2 mi NW 13.8 mph - N/A   Scattered Clouds
4:00 PM 53 °F - 38 °F 47% 29.97 in 11 mi NW 13.8 mph - -   Partly Cloudy
5:55 PM 48.2 °F - 37.4 °F 66% 29.98 in 6.2 mi WNW 5.8 mph - N/A   Scattered Clouds
6:55 PM 48.2 °F - 37.4 °F 66% 29.98 in 6.2 mi WNW 6.9 mph - N/A   Mostly Cloudy
7:00 PM 48 °F - 38 °F 59% 30.00 in 10 mi WNW 6.9 mph - -   Mostly Cloudy
7:55 PM 48.2 °F - 39.2 °F 71% 29.98 in 6.2 mi North 5.8 mph - N/A   Scattered Clouds
8:55 PM 46.4 °F 43.5 °F 37.4 °F 71% 29.98 in 6.2 mi WNW 5.8 mph - N/A   Partly Cloudy
9:55 PM 46.4 °F 42.9 °F 37.4 °F 71% 29.98 in 6.2 mi WNW 6.9 mph - N/A   Partly Cloudy
10:00 PM 46 °F - 37 °F 62% 30.00 in 12 mi WNW 6.9 mph - -   Scattered Clouds
10:55 PM 46.4 °F 42.4 °F 35.6 °F 66% 29.98 in 6.2 mi NW 8.1 mph - N/A   Partly Cloudy
11:55 PM 46.4 °F 42.4 °F 37.4 °F 71% 30.01 in 6.2 mi NW 8.1 mph - N/A   Scattered Clouds